Weather History for TKPK - October, 2012

Change the Weather History Date:

Tuesday, October 30, 2012

  Actual Average Record
Temperature  
Mean Temperature 81 °F -  
Max Temperature 87 °F 83 °F 89 °F (2014)
Min Temperature 75 °F 75 °F 75 °F (1996)
Cooling Degree Days 16    
Growing Degree Days 31 (Base 50)    
Moisture  
Dew Point 77 °F    
Average Humidity 79    
Maximum Humidity 100    
Minimum Humidity 68    
Precipitation  
Precipitation 0.00 in - - ()
Sea Level Pressure  
Sea Level Pressure 29.96 in    
Wind  
Wind Speed 4 mph ()    
Max Wind Speed 9 mph    
Max Gust Speed -    
Visibility 7.0 miles    
Events      
Averages and records for this station are not official NWS values.
T = Trace of Precipitation, MM = Missing Value Source: Averaged Metar Reports

Daily Weather History Graph

Daily Weather History Graph

Search for Another Location

Airport or City:

Trip Planner

Search our weather history database for the weather conditions in past years. The results will help you decide how hot, cold, wet, or windy it might be!

Date:

Astronomy

Oct. 30, 2012 Rise Set
Actual Time 6:08 AM AST 5:39 PM AST
Civil Twilight 5:46 AM AST 6:02 PM AST
Nautical Twilight 5:20 AM AST 6:27 PM AST
Astronomical Twilight 4:54 AM AST 6:53 PM AST
Moon 6:18 PM AST (10/30) 6:41 AM AST (10/30)
Length of Visible Light 12h 15m
Length of Day
11h 31m
Full, 99% of the Moon is Illuminated
Oct 30
Full
Nov 6
Last Quarter
Nov 13
New
Nov 20
First Quarter
Nov 28
Full

Hourly Weather History & Observations

Time (AST) Temp. Heat Index Dew Point Humidity Pressure Visibility Wind Dir Wind Speed Gust Speed Precip Events Conditions
6:00 AM 78.8 °F - 75.2 °F 89% 29.95 in 6.2 mi Calm Calm - N/A   Partly Cloudy
7:00 AM 80.6 °F 87.1 °F 77.0 °F 89% 29.95 in 6.2 mi Calm Calm - N/A   Partly Cloudy
8:00 AM 84 °F - 77 °F 75% 29.98 in 22 mi 2.3 mph - -   Partly Cloudy
8:00 AM 84.2 °F 94.1 °F 77.0 °F 79% 29.98 in 6.2 mi Variable 2.3 mph - N/A   Partly Cloudy
9:00 AM 86.0 °F 96.9 °F 77.0 °F 74% 29.98 in 6.2 mi East 9.2 mph - N/A   Partly Cloudy
10:00 AM 86.0 °F 96.9 °F 77.0 °F 74% 29.98 in 6.2 mi ENE 8.1 mph - N/A   Partly Cloudy
11:00 AM 86 °F - 77 °F 68% 30.00 in 22 mi East 8.1 mph - -   Scattered Clouds
11:00 AM 86.0 °F 96.9 °F 77.0 °F 74% 29.98 in 6.2 mi East 8.1 mph - N/A   Partly Cloudy
12:00 PM 87.8 °F 102.5 °F 78.8 °F 75% 29.95 in 6.2 mi ENE 8.1 mph - N/A   Partly Cloudy
1:00 PM 86.0 °F 96.9 °F 77.0 °F 74% 29.95 in 6.2 mi ENE 5.8 mph - N/A   Partly Cloudy
2:00 PM 86 °F - 77 °F 68% 29.94 in 25 mi ENE 6.9 mph - -   Scattered Clouds
2:00 PM 86.0 °F 96.9 °F 77.0 °F 74% 29.92 in 6.2 mi ENE 6.9 mph - N/A   Partly Cloudy
3:00 PM 86.0 °F 96.9 °F 77.0 °F 74% 29.92 in 6.2 mi NE 5.8 mph - N/A   Partly Cloudy
4:00 PM 86.0 °F 96.9 °F 77.0 °F 74% 29.92 in 6.2 mi NNE 5.8 mph - N/A   Partly Cloudy
5:00 PM 84 °F - 76 °F 72% 29.94 in 25 mi NNE 4.6 mph - -   Scattered Clouds
5:00 PM 84.2 °F 94.1 °F 77.0 °F 79% 29.92 in 6.2 mi NNE 4.6 mph - N/A   Partly Cloudy
6:00 PM 80.6 °F 87.1 °F 77.0 °F 89% 29.95 in 6.2 mi Variable 2.3 mph - N/A   Partly Cloudy
7:00 PM 80.6 °F 86.2 °F 75.2 °F 84% 29.95 in 6.2 mi North 4.6 mph - N/A   Scattered Clouds
8:00 PM 80 °F - 80 °F 100% 29.99 in 19 mi NNE 4.6 mph - -   Scattered Clouds
8:00 PM 80.6 °F 87.1 °F 77.0 °F 89% 29.98 in 6.2 mi NNE 4.6 mph - N/A   Mostly Cloudy
9:00 PM 80.6 °F 86.2 °F 75.2 °F 84% 29.98 in 6.2 mi NE 8.1 mph - N/A   Partly Cloudy